Home > Weather > Tønsberg > Past weeks

Flag for Norway Past Weather in Tønsberg, Norway — Yesterday and Last 2 Weeks

Now
59 °F

Partly sunny.


Feels Like: 57 °F
Forecast: 61 / 72 °F
Wind: 12 mph from South

Location: Oseberg

Current Time: Jul 24, 2016 at 10:30:46 PM

Latest Report: Jul 24, 2016 at 9:50 PM


Visibility: N/A

Pressure: 30.04 "Hg

Humidity: 94%

Dew Point: 57 °F

Location of TønsbergLocation

Past Weather in Tønsberg — Graph

°F

Tønsberg Temperature Yesterday

Maximum temperature yesterday: 61 °F (at 2:50 PM)
Minimum temperature yesterday: 57 °F (at 1:50 AM)
Average temperature yesterday: 58 °F

High & Low Weather Summary for the Past Weeks

 TemperatureHumidityPressure
High68 °F (Jul 21, 6:50 AM)100% (Jul 10, 8:50 AM)30.12 "Hg (Jul 10, 8:50 AM)
Low52 °F (Jul 9, 8:50 PM)64% (Jul 21, 6:50 AM)29.36 "Hg (Jul 11, 4:50 AM)
Average57 °F91%29.84 "Hg
* Reported Jul 9 8:50 PM — Jul 24 8:50 PM, Tønsberg, Weather by CustomWeather, © 2016

Note: Actual official high and low records may vary slightly from our data, if they occured in-between our weather recording intervals... More about our weather records

Advertising

Tønsberg Weather History for the Previous 24 Hours

Scroll right to see more
 ConditionsComfort  
Time TempWeatherWind HumidityBarometerVisibility
8:50 PM
Sun, Jul 24
59 °FPartly sunny.12 mph100%30.04 "Hg4 mi
7:50 PM59 °FPartly sunny.14 mph100%30.04 "Hg4 mi
6:50 PM59 °FPartly sunny.16 mph100%30.04 "Hg4 mi
6:20 PM59 °FPartly sunny.18 mph94%30.07 "Hg2 mi
4:50 PM59 °FScattered clouds.17 mph94%30.07 "Hg3 mi
3:50 PM59 °FPartly sunny.18 mph94%30.07 "Hg4 mi
2:50 PM59 °FPartly sunny.17 mph94%30.07 "Hg3 mi
1:50 PM59 °FBroken clouds.18 mph88%30.07 "Hg2 mi
12:50 PM57 °FFog.17 mph94%30.07 "Hg0 mi
10:50 AM57 °FFog.18 mph94%30.07 "Hg1 mi
9:50 AM61 °FSunny.16 mph83%30.07 "Hg10 mi
8:50 AM59 °FPassing clouds.15 mph82%30.07 "HgN/A
7:50 AM59 °FPartly sunny.16 mph82%30.07 "HgN/A
6:50 AM61 °FPartly sunny.15 mph77%30.07 "HgN/A
5:50 AM59 °FPartly sunny.16 mph82%30.07 "HgN/A
4:50 AM59 °FPassing clouds.15 mph77%30.07 "HgN/A
3:50 AM59 °FPassing clouds.17 mph94%30.07 "HgN/A
2:50 AM57 °FPassing clouds.15 mph100%30.07 "HgN/A
1:50 AM59 °FFog.16 mph100%30.09 "Hg3 mi
12:50 AM59 °FFog.18 mph100%30.07 "Hg1 mi
11:50 PM
Sat, Jul 23
59 °FFog.21 mph100%30.09 "Hg1 mi
10:50 PM59 °FFog.18 mph100%30.09 "Hg1 mi
Weather by CustomWeather, © 2016

See weather overviewHow to use our weather pages